Weather reports worldwide

Advertisment
Lichtenhain-Mittelndorf, Germany (10591): temperature & dewpoint: 08.12.2019 02:00:00 - 14.12.2019 02:00:00 (CET)Lichtenhain-Mittelndorf, Germany (10591): temperature 5cm & temperature -5cm: 08.12.2019 02:00:00 - 14.12.2019 02:00:00 (CET)Lichtenhain-Mittelndorf, Germany (10591): temperature -20cm & temperature -100cm: 08.12.2019 02:00:00 - 14.12.2019 02:00:00 (CET)Lichtenhain-Mittelndorf, Germany (10591): wind speed & gusts: 08.12.2019 02:00:00 - 14.12.2019 02:00:00 (CET)Lichtenhain-Mittelndorf, Germany (10591): wind direction: 08.12.2019 02:00:00 - 14.12.2019 02:00:00 (CET)Lichtenhain-Mittelndorf, Germany (10591): reduced air pressure: 08.12.2019 02:00:00 - 14.12.2019 02:00:00 (CET)Lichtenhain-Mittelndorf, Germany (10591): visibility: 08.12.2019 02:00:00 - 14.12.2019 02:00:00 (CET)Lichtenhain-Mittelndorf, Germany (10591): sunshine duration: 08.12.2019 02:00:00 - 14.12.2019 02:00:00 (CET)Lichtenhain-Mittelndorf, Germany (10591): precipitation: 08.12.2019 02:00:00 - 14.12.2019 02:00:00 (CET)
Date & Time tt [°C] td [°C] tt 5cm [°C] tt -5cm [°C] tt -20cm [°C] tt -100cm [°C] ff [km/h] ff [kn] fx [km/h] fx [kn] dd ppp [hPa] vv [km] sd [min] rr [mm]
14.12.2019 02:00:00 2,9 0,7 2,1 -0,1 1,0 6,8 12 7 27 15 S 988,0 22 0 0,0
14.12.2019 01:00:00 2,6 0,5 1,7 -0,1 1,0 6,8 13 7 29 16 S 987,9 17 0 0,0
14.12.2019 00:00:00 2,2 0,4 1,7 -0,1 1,0 6,8 20 11 35 19 S 987,5 11 0 0,0
13.12.2019 23:00:00 1,9 0,2 1,4 -0,1 1,0 6,8 19 10 41 22 S 987,2 10 0 0,0
13.12.2019 22:00:00 1,2 -0,1 0,9 -0,1 1,0 6,8 21 12 35 19 S 986,7 7 0 0,0
13.12.2019 21:00:00 1,0 -0,8 0,7 -0,1 1,0 6,8 19 10 48 26 S 986,0 8 0 0,0
13.12.2019 20:00:00 0,5 -1,1 0,2 -0,1 1,0 6,8 29 16 50 27 SSE 985,8 6 0 0,0
13.12.2019 19:00:00 0,1 -1,5 -0,1 -0,1 1,0 6,8 27 15 52 28 SSE 985,2 6 0 0,0
13.12.2019 18:00:00 -0,2 -1,8 -0,3 -0,1 1,0 6,8 34 18 52 28 SSE 985,0 4,4 0 0,0
13.12.2019 17:00:00 0,2 -2,0 0,0 -0,1 1,0 6,8 26 14 45 24 SSE 984,2 8 0 0,0
13.12.2019 16:00:00 0,5 -2,1 0,3 -0,1 1,0 6,9 26 14 53 29 SSE 984,3 4,5 0 0,0
13.12.2019 15:00:00 0,7 -2,3 0,5 -0,1 1,0 6,9 31 17 53 29 S 984,3 14 0 0,0
13.12.2019 14:00:00 0,5 -2,3 0,4 -0,1 1,0 6,9 29 15 54 29 SSE 983,8 14 0 0,0
13.12.2019 13:00:00 0,6 -2,3 0,6 -0,1 1,0 6,9 33 18 54 29 SSE 983,7 16 0 0,0
13.12.2019 12:00:00 0,8 -2,2 0,7 -0,1 1,0 6,9 31 17 63 34 SSE 983,9 19 0 0,0
13.12.2019 11:00:00 0,8 -2,3 0,9 -0,2 1,0 6,9 28 15 54 29 SSE 984,8 19 0 0,0
13.12.2019 10:00:00 0,5 -2,1 0,4 -0,2 1,0 6,9 28 15 54 29 SSE 986,1 15 0 0,0
13.12.2019 09:00:00 -0,1 -2,2 -0,2 -0,3 1,0 6,9 31 17 56 30 SSE 987,5 10 0 0,0
13.12.2019 08:00:00 -0,4 -2,0 -0,5 -0,3 1,0 6,9 35 19 59 32 SSE 988,1 7 0 0,0
13.12.2019 07:00:00 -0,4 -2,0 -0,6 -0,3 1,0 7,0 36 19 56 31 SSE 988,7 5 0 0,0
13.12.2019 06:00:00 -0,2 -2,2 -1,1 -0,3 1,0 7,0 19 10 39 21 SE 990,2 8 0 0,0
13.12.2019 05:00:00 -0,3 -2,2 -0,6 -0,2 1,1 7,0 18 10 35 19 SSE 991,8 6 0 0,0
13.12.2019 04:00:00 0,0 -1,9 -0,5 -0,3 1,1 7,0 14 7 24 13 SSE 993,4 7 0 0,0
13.12.2019 03:00:00 0,3 -1,8 0,0 -0,2 1,1 7,0 19 11 34 19 SE 994,9 7 0 0,0
13.12.2019 02:00:00 0,1 -1,5 -0,4 -0,3 1,1 7,0 16 9 31 17 SE 996,1 6 0 0,0
13.12.2019 01:00:00 0,3 -1,3 -0,3 -0,2 1,1 7,0 13 7 24 13 SSE 997,5 5 0 0,0
13.12.2019 00:00:00 0,1 -1,6 -0,3 -0,2 1,1 7,0 11 6 32 17 SE 999,2 4,8 0 0,0
12.12.2019 23:00:00 0,0 -1,6 -0,2 -0,2 1,1 7,0 15 8 35 19 SSE 1000,4 4,3 0 0,0
12.12.2019 22:00:00 -0,1 -1,5 -0,4 -0,2 1,1 7,1 18 10 31 17 SE 1001,2 4,4 0 0,0
12.12.2019 21:00:00 -0,1 -1,6 -0,4 -0,2 1,1 7,1 16 9 26 14 SSE 1002,1 4,5 0 0,0
12.12.2019 20:00:00 -0,2 -1,8 -0,2 -0,2 1,1 7,1 10 5 24 13 SE 1003,0 4,6 0 0,0
12.12.2019 19:00:00 -0,3 -2,1 -0,4 -0,1 1,1 7,1 13 7 26 14 SE 1003,7 5 0 0,0
12.12.2019 18:00:00 -0,2 -2,2 -0,5 -0,1 1,1 7,1 15 8 28 15 SE 1004,4 6 0 0,0
12.12.2019 17:00:00 -0,2 -2,4 -0,4 -0,1 1,1 7,1 13 7 25 14 SSE 1004,7 6 0 0,0
12.12.2019 16:00:00 0,2 -2,5 -0,1 -0,1 1,1 7,1 15 8 30 16 SE 1004,8 8 0 0,0
12.12.2019 15:00:00 0,1 -2,9 0,1 -0,1 1,1 7,1 15 8 32 17 SSE 1005,1 9 0 0,0
12.12.2019 14:00:00 0,1 -3,1 0,4 -0,1 1,1 7,1 18 10 30 16 SSE 1005,4 9 0 0,0
12.12.2019 13:00:00 -0,1 -3,1 0,1 -0,1 1,2 7,1 19 10 28 15 SSE 1006,1 9 0 0,0
12.12.2019 12:00:00 -0,3 -3,4 0,0 -0,2 1,2 7,2 19 10 28 15 SSE 1006,5 10 0 0,0
12.12.2019 11:00:00 -0,6 -3,8 -0,2 -0,2 1,2 7,2 16 8 31 17 SSE 1006,9 10 0 0,0
12.12.2019 10:00:00 -0,9 -4,2 -0,6 -0,3 1,2 7,2 16 9 33 18 SSE 1007,1 10 0 0,0
12.12.2019 09:00:00 -1,1 -4,6 -1,0 -0,4 1,2 7,2 19 11 29 16 SSE 1006,7 11 0 0,0
12.12.2019 08:00:00 -1,3 -4,9 -1,2 -0,4 1,2 7,2 16 9 34 18 SSE 1006,7 13 0 0,0
12.12.2019 07:00:00 -1,2 -5,1 -1,2 -0,4 1,2 7,2 18 10 32 17 S 1006,5 14 0 0,0
12.12.2019 06:00:00 -1,3 -5,1 -1,3 -0,4 1,3 7,2 16 8 34 18 SSE 1006,4 14 0 0,0
12.12.2019 05:00:00 -1,2 -5,4 -1,2 -0,4 1,3 7,2 16 9 34 18 SSE 1006,2 16 0 0,0
12.12.2019 04:00:00 -1,2 -5,6 -1,2 -0,4 1,3 7,2 21 11 41 22 SSE 1006,6 16 0 0,0
12.12.2019 03:00:00 -1,2 -6,1 -1,1 -0,4 1,3 7,2 22 12 40 22 SSE 1007,0 17 0 0,0
12.12.2019 02:00:00 -1,0 -7,0 -1,0 -0,3 1,3 7,2 19 10 41 22 SSE 1007,5 22 0 0,0
12.12.2019 01:00:00 -0,7 -7,4 -0,8 -0,3 1,4 7,3 21 12 42 23 SSE 1007,8 26 0 0,0
12.12.2019 00:00:00 -0,6 -7,8 -1,2 -0,2 1,4 7,3 26 14 41 22 SSE 1008,5 27 0 0,0
11.12.2019 23:00:00 -0,4 -6,8 -1,1 -0,1 1,4 7,3 14 8 30 16 SSE 1008,8 26 0 0,0
11.12.2019 22:00:00 -0,3 -6,0 -0,9 -0,1 1,4 7,3 20 11 37 20 SSE 1009,3 23 0 0,0
11.12.2019 21:00:00 0,0 -5,0 -0,6 0,0 1,5 7,3 19 10 40 21 SSE 1009,5 20 0 0,0
11.12.2019 20:00:00 0,1 -4,4 -0,7 0,0 1,5 7,3 14 8 26 14 SE 1009,5 22 0 0,0
11.12.2019 19:00:00 0,0 -3,8 -1,1 0,0 1,5 7,3 14 8 37 20 SSE 1010,5 17 0 0,0
11.12.2019 18:00:00 0,1 -3,2 -1,1 0,0 1,5 7,3 16 9 30 16 SSE 1011,1 15 0 0,0
11.12.2019 17:00:00 0,3 -2,9 -0,5 0,0 1,5 7,3 21 11 39 21 SSE 1011,6 14 0 0,0
11.12.2019 16:00:00 0,5 -3,0 -0,4 0,0 1,6 7,3 24 13 42 23 SSE 1012,0 19 4 0,0
11.12.2019 15:00:00 1,4 -3,1 0,9 0,0 1,6 7,3 21 11 38 21 SSE 1012,5 24 60 0,0
11.12.2019 14:00:00 1,5 -3,3 1,0 0,0 1,6 7,3 20 11 37 20 SSE 1013,2 18 60 0,0
11.12.2019 13:00:00 1,2 -3,4 0,9 0,0 1,7 7,3 19 11 43 23 SSE 1014,4 21 53 0,0
11.12.2019 12:00:00 1,2 -3,8 1,4 0,0 1,7 7,3 19 11 40 21 SSE 1015,7 17 60 0,0
11.12.2019 11:00:00 0,8 -3,8 0,7 0,0 1,8 7,3 24 13 50 27 SSE 1016,9 22 60 0,0
11.12.2019 10:00:00 0,1 -4,2 -0,2 -0,1 1,8 7,3 27 14 45 25 SSE 1017,5 19 60 0,0
11.12.2019 09:00:00 -0,2 -4,7 -0,8 -0,1 1,9 7,3 26 14 47 25 SSE 1018,1 25 34 0,0
11.12.2019 08:00:00 -1,0 -4,5 -1,9 0,0 1,9 7,3 23 13 40 22 SSE 1018,3 18 0 0,0
11.12.2019 07:00:00 -0,8 -4,3 -1,8 0,0 2,0 7,3 23 12 42 23 SSE 1018,6 22 0 0,0
11.12.2019 06:00:00 -0,6 -3,6 -1,8 0,1 2,1 7,3 21 11 35 19 SSE 1018,8 19 0 0,0
11.12.2019 05:00:00 -0,3 -3,5 -1,5 0,1 2,2 7,3 18 10 30 16 SSE 1019,8 20 0 0,0
11.12.2019 04:00:00 -0,2 -3,5 -1,5 0,1 2,3 7,3 20 11 33 18 SSE 1020,8 22 0 0,0
11.12.2019 03:00:00 -0,7 -3,3 -1,9 0,2 2,4 7,3 16 9 23 12 SSE 1021,9 17 0 0,0
11.12.2019 02:00:00 -1,1 -2,7 -2,6 0,2 2,5 7,3 9 5 18 10 ESE 1022,8 15 0 0,0
11.12.2019 01:00:00 0,2 -2,4 -1,2 0,3 2,6 7,3 17 9 28 15 S 1023,8 20 0 0,0
11.12.2019 00:00:00 0,0 -2,3 -1,2 0,3 2,8 7,3 18 10 26 14 S 1024,7 18 0 0,0
10.12.2019 23:00:00 -0,1 -2,0 -1,5 0,3 3,0 7,3 10 5 16 9 SSE 1025,0 17 0 0,0
10.12.2019 22:00:00 0,5 -1,8 -1,3 0,3 3,2 7,3 6 3 14 8 S 1025,2 22 0 0,0
10.12.2019 21:00:00 0,9 -1,3 -1,0 0,0 3,5 7,3 8 4 12 6 SSE 1025,9 21 0 0,0
10.12.2019 20:00:00 1,5 -0,7 -0,5 0,7 3,8 7,3 6 4 8 5 S 1025,9 25 0 0,0
10.12.2019 19:00:00 2,2 -0,6 0,0 1,8 4,0 7,3 6 4 9 5 SSW 1025,8 21 0 0,0
10.12.2019 18:00:00 2,8 -0,4 1,6 2,4 4,2 7,3 6 4 9 5 SSW 1025,9 23 0 0,0
10.12.2019 17:00:00 2,8 -0,4 1,4 2,7 4,3 7,3 7 4 15 8 SW 1026,0 24 0 0,0
10.12.2019 16:00:00 2,7 -0,4 1,5 3,3 4,3 7,3 8 4 24 13 W 1025,9 22 0 0,0
10.12.2019 15:00:00 3,7 -0,4 3,8 4,8 4,1 7,3 16 8 26 14 WNW 1025,5 26 33 0,0
10.12.2019 14:00:00 4,6 -0,1 5,3 4,7 3,9 7,3 11 6 32 17 WNW 1024,7 27 57 0,0
10.12.2019 13:00:00 3,7 -0,3 3,7 3,6 3,7 7,3 17 9 31 17 NW 1024,4 26 31 0,0
10.12.2019 12:00:00 3,2 -0,2 3,8 3,5 3,6 7,2 21 11 39 21 WNW 1024,3 25 7 0,0
10.12.2019 11:00:00 2,6 -0,2 2,6 2,8 3,6 7,2 22 12 42 23 NW 1024,1 23 0 0,0
10.12.2019 10:00:00 2,3 0,2 2,5 2,4 3,7 7,2 20 11 38 20 WNW 1023,3 19 0 0,0
10.12.2019 09:00:00 2,1 0,3 2,1 2,1 3,8 7,2 23 12 40 22 NW 1022,3 17 0 0,0
10.12.2019 08:00:00 2,0 0,1 1,9 2,0 3,9 7,2 18 10 43 23 NW 1021,2 18 0 0,0
10.12.2019 07:00:00 2,3 -0,2 1,9 2,2 4,1 7,2 25 14 43 23 NW 1019,9 23 0 0,0
10.12.2019 06:00:00 2,6 0,0 2,2 2,5 4,2 7,2 22 12 43 23 NW 1018,4 24 0 0,0
10.12.2019 05:00:00 2,9 0,5 2,3 2,6 4,4 7,2 32 17 50 27 NW 1017,2 18 0 0,0
10.12.2019 04:00:00 3,4 0,9 2,7 2,9 4,5 7,2 30 16 50 27 NW 1015,6 25 0 0,0
10.12.2019 03:00:00 3,7 1,6 3,2 3,4 4,6 7,2 25 14 39 21 WNW 1014,7 24 0 0,0
10.12.2019 02:00:00 3,7 2,0 3,3 3,7 4,7 7,2 22 12 44 24 NW 1013,2 26 0 0,1
10.12.2019 01:00:00 3,5 2,7 3,3 4,0 4,8 7,2 21 12 50 27 WNW 1011,3 9 0 0,5
10.12.2019 00:00:00 4,5 3,0 3,8 4,1 4,8 7,2 19 10 30 16 WNW 1009,7 47 0 0,5
09.12.2019 23:00:00 4,6 3,7 4,2 4,2 4,9 7,1 11 6 34 19 W 1008,7 6 0 0,3
09.12.2019 22:00:00 4,7 3,9 4,4 4,4 4,9 7,1 16 9 34 18 WNW 1007,6 5 0 0,5
09.12.2019 21:00:00 6,2 2,5 5,6 4,4 5,0 7,1 22 12 34 18 W 1006,1 70 0 0,0
09.12.2019 20:00:00 6,0 2,6 4,9 4,3 5,0 7,1 19 10 35 19 SSW 1005,1 20 0 0,0
09.12.2019 19:00:00 6,0 2,5 4,7 4,3 5,1 7,1 18 10 28 15 S 1004,0 59 0 0,0
09.12.2019 18:00:00 6,5 2,6 5,7 4,6 5,2 7,1 23 13 37 20 S 1003,6 56 0 0,0
09.12.2019 17:00:00 5,7 3,1 5,2 4,7 5,3 7,1 20 11 32 18 S 1003,3 50 0 0,0
09.12.2019 16:00:00 6,7 2,2 5,8 5,3 5,3 7,1 25 14 45 24 S 1002,6 70 4 0,0
09.12.2019 15:00:00 7,5 2,0 7,0 5,4 5,2 7,1 26 14 46 25 S 1002,3 42 0 0,0
09.12.2019 14:00:00 7,5 1,7 6,9 5,8 5,1 7,1 21 12 33 18 S 1002,2 60 11 0,0
09.12.2019 13:00:00 7,9 2,3 8,0 5,7 5,0 7,1 22 12 38 21 S 1002,2 31 11 0,0
09.12.2019 12:00:00 6,8 2,6 6,4 5,3 4,9 7,1 20 11 27 15 S 1002,9 54 0 0,0
09.12.2019 11:00:00 6,9 2,3 5,9 5,1 4,9 7,0 13 7 31 17 SSW 1002,9 62 8 0,0
09.12.2019 10:00:00 6,3 2,6 5,4 4,6 4,9 7,0 18 10 26 14 S 1002,8 43 18 0,0
09.12.2019 09:00:00 6,5 2,4 5,7 4,3 5,0 7,0 16 9 29 16 S 1002,9 43 0 0,0
09.12.2019 08:00:00 6,7 2,3 5,2 4,3 5,1 7,0 18 10 26 14 S 1002,7 70 0 0,0
09.12.2019 07:00:00 6,2 2,8 5,3 4,2 5,2 7,0 14 8 20 11 SSE 1002,5 70 0 0,0
09.12.2019 06:00:00 6,4 2,9 4,4 4,8 5,3 7,0 10 6 28 15 SSW 1002,4 70 0 0,0
09.12.2019 05:00:00 6,9 3,3 5,6 4,8 5,4 7,0 14 8 26 14 S 1002,0 70 0 0,0
09.12.2019 04:00:00 7,0 3,9 5,8 5,0 5,4 7,0 15 8 25 14 S 1002,1 70 0 0,0
09.12.2019 03:00:00 6,8 4,8 5,8 5,6 5,5 7,0 11 6 22 12 S 1002,1 70 0 0,0
09.12.2019 02:00:00 7,1 5,2 6,3 5,9 5,4 7,0 17 9 30 16 WSW 1001,8 70 0 1,0
09.12.2019 01:00:00 6,7 6,3 6,4 6,1 5,4 7,0 16 8 29 15 W 1002,1 2,6 0 1,9
09.12.2019 00:00:00 7,5 6,2 6,8 6,3 5,3 7,0 20 11 39 21 WNW 1001,8 5 0 0,1
08.12.2019 23:00:00 9,2 5,2 8,3 6,3 5,2 7,0 24 13 49 26 SSW 1001,2 70 0 0,0
08.12.2019 22:00:00 9,0 5,1 7,9 6,1 5,1 7,0 23 13 43 23 SSW 1001,6 70 0 0,0
08.12.2019 21:00:00 8,6 5,2 7,3 5,9 5,0 7,0 17 9 37 20 SSW 1002,2 66 0 0,1
08.12.2019 20:00:00 8,5 4,8 7,6 5,7 5,0 7,0 19 11 31 17 S 1002,6 63 0 0,0
08.12.2019 19:00:00 8,3 4,6 6,7 5,7 4,9 7,0 22 12 42 23 S 1003,3 58 0 0,1
08.12.2019 18:00:00 8,5 4,3 6,5 5,7 4,9 7,0 26 14 41 22 S 1003,7 70 0 0,0
08.12.2019 17:00:00 8,1 4,1 6,2 5,6 4,8 7,0 21 11 37 20 S 1004,2 70 0 0,4
08.12.2019 16:00:00 7,7 4,1 6,1 5,6 4,7 7,0 23 12 36 20 S 1004,5 7 0 0,3
08.12.2019 15:00:00 8,6 2,9 7,5 5,6 4,7 7,0 26 14 48 26 S 1004,4 62 0 0,0
08.12.2019 14:00:00 8,5 2,9 7,6 5,8 4,5 7,0 29 16 51 28 S 1004,8 67 0 0,0
08.12.2019 13:00:00 8,5 2,8 7,6 6,1 4,3 7,0 22 12 45 24 S 1006,1 70 10 0,0
08.12.2019 12:00:00 8,6 2,8 8,3 6,2 4,0 7,0 22 12 37 20 S 1006,6 52 35 0,0
08.12.2019 11:00:00 7,4 2,9 6,9 5,2 3,8 7,0 17 9 31 17 S 1008,1 54 10 0,0
08.12.2019 10:00:00 6,4 2,6 5,6 4,3 3,7 7,0 17 9 31 17 S 1009,3 53 15 0,0
08.12.2019 09:00:00 5,8 2,7 5,0 4,0 3,7 7,0 20 11 37 20 S 1010,1 46 0 0,0
08.12.2019 08:00:00 6,0 2,5 5,1 3,9 3,6 7,0 22 12 34 18 S 1010,5 34 0 0,0
08.12.2019 07:00:00 6,2 2,5 5,5 3,9 3,6 7,0 19 11 32 18 S 1011,1 49 0 0,0
08.12.2019 06:00:00 6,4 2,2 5,4 3,8 3,6 7,0 17 9 28 15 SSW 1011,9 62 0 0,0
08.12.2019 05:00:00 6,2 2,5 5,5 3,8 3,5 7,0 15 8 31 17 S 1012,5 67 0 0,0
08.12.2019 04:00:00 6,9 1,7 5,9 3,7 3,5 7,0 16 8 24 13 WSW 1013,0 70 0 0,0
08.12.2019 03:00:00 6,8 1,7 5,4 3,7 3,5 7,1 9 5 23 12 SW 1013,8 70 0 0,0
08.12.2019 02:00:00 6,9 1,4 5,8 3,8 3,4 7,1 12 6 30 16 WSW 1014,4 67 0 0,0

tt = temperature
td = dewpoint
tt 5cm = temperature 5cm
tt -5cm = temperature -5cm
tt -20cm = temperature -20cm
tt -100cm = temperature -100cm
ff = wind speed
fx = gusts
dd = wind direction
ppp = reduced air pressure
vv = visibility
sd = sunshine duration
rr = precipitation

Next stations